COSMOS 2251 DEB, 34761

Orbit data source: Space-Track

COSMOS 2251 DEB, 34761 is space debris in LEO originally from a launch on Wed, 16 Jun 1993 UTC launched from the Plesetsk Missile And Space Complex (PKMTR). The debris from Iridium 33, an American commercial communications satellite, has been tracked extensively since its accidental collision with the defunct Russian satellite Cosmos 2251 in 2009. This event, occurring at high speed in low Earth orbit (LEO), generated thousands of pieces of space debris, significantly increasing the risk of further collisions. The Iridium 33 debris cloud has impacted space traffic management and orbital debris mitigation strategies, making it a subject of ongoing study in space situational awareness.

Loading next visibility...
Identifier
34761, 1993-036AAF
Orbit
LEO
Country
Flag of CISCIS
Related business
Manufacturer
Unknown
Mission
Spacecraft
Bus & Motor
Unknown
Mass
Unknown
Launch date (UTC)
1993-06-16 (32 years ago)
Launch vehicle
Unknown
Launch site
Plesetsk Missile And Space Complex (PKMTR)
Object type
Payload
Rocket body
Debris
Shape & HBR
Unknown
Radar Cross Section
Small (<0.1 m²)

Expand to show TLE details & history
Last TLE update: 2 days ago

TLE from 2 days ago
0 COSMOS 2251 DEB
1 34761U 93036AAF 25260.17308778  .00001235  00000-0  41695-3 0  9997
2 34761  74.0289 162.2555 0039271 221.7608 138.0547 14.37565670864052
Epoch: 2025-09-17T04:09Z
TLE epoch observation values (Epoch: 2025-09-17T04:09:14.784Z)
Latitude
-0.00003°
Longitude
103.59105°
Altitude
790.087 km
Speed
7.448 km/s
True Right ascension
10h 49m 01s
True Declination
0° 00' 00"
Sunlit
Object was in daylight at epoch
Visualization orbit readout
Latitude
Unknown
Longitude
Unknown
Altitude
Unknown
Speed
Unknown
Apparent Right ascension
Unknown
Apparent Declination
Unknown
Sunlit
N/A
Visualization observer readout
Local Sidereal Time
17:39:02
Azimuth
Unknown
Elevation
Unknown
Doppler factor
Unknown
Orbital elements
Apogee altitude
792.224 km
Perigee altitude
736.127 km
Semi-major axis
7,142.313 km
Eccentricity
0.00393
Inclination
74.0289°
RAAN
162.2555°
Arg. of periapsis
221.7608°
True anomaly
138.3544°
Mean anomaly
138.0547°
Eccentric anomaly
138.20466°
Mean motion
3.59571 °/min
Orbital period
100.12 mins
BSTAR
0.00041695
Loading maneuver chart data...
Computing Atmospheric mass density...

Documentation

Showing up to 5 results
|